LTBULBBG

Guest
Details From LTBU - CORLU
To LBBG - Burgas
Flight Number -
Tags generated
Created
Modified
Stats Distance 88 nm / 163 km
Max Altitude 0 ft / 0 m
Waypoints 3
Social Downloads 0
Likes 0
Share

Download

Looking for another format? Having issues loading an existing format? Contact us
Advertisement - Login to hide

Notes

Basic altitude profile: - Ascent Rate: 2500ft/min - Ascent Speed: 250kts - Cruise Altitude: 35000ft - Cruise Speed: 420kts - Descent Rate: 1500ft/min - Descent Speed: 250kts Options: - Use NATs: yes - Use PACOTS: yes - Use low airways: yes - Use high airways: yes

Route

LTBU BGS LBBG

ID Type Via Altitude (ft/m) Position (lat/lon) Dist (leg/tot) Name
O LTBU APT - 0 / 0 41.13830 / 27.91890 - / 0 nm CORLU
BGS DME - 0 / 0 42.57110 / 27.51990 87 / 87 nm BURGAS VOR-DME
O LBBG APT - 0 / 0 42.57010 / 27.51530 0 / 88 nm Burgas

Altitude Profile

Advertisement - Login to hide

LTBU

Details ICAO LTBU (TEQ)
Name CORLU
Region Turkey
Timezone Europe/Istanbul (UTC+3.0)
Stats Elevation 574 ft / 175 m (AMSL)
Location 41.138300° 27.918900°
Runways 1
Magnetic Variation 5.613° E

METAR

LTBU 110620Z 05011KT 9999 FEW035 26/19 Q1015

Decode

TAF

TAF LTBU 110440Z 1106/1206 04015KT 9999 FEW030 BECMG 1108/1111 CAVOK BECMG 1116/1119 VRB02KT

Decode

Departure Runways

ID Width Length Bearing (true/mag) Surface Threshold Overrun Markings Lighting
05 148 ft / 45 m 9,899 ft / 3,017 m 49.36° / 43.74° CONCRETE 0 ft / 0 m 458 ft / 140 m PREC-APP EDGE THRESHOLD SALS
23 148 ft / 45 m 9,899 ft / 3,017 m 229.37° / 223.76° CONCRETE 0 ft / 0 m 495 ft / 151 m APP EDGE THRESHOLD

LBBG

Details ICAO LBBG (BOJ)
Name Burgas
Region Bulgaria
Timezone Europe/Sofia (UTC+3.0)
Stats Elevation 134 ft / 41 m (AMSL)
Location 42.570100° 27.515300°
Runways 1
Magnetic Variation 5.776° E

METAR

LBBG 110630Z 23004KT 170V300 CAVOK 26/14 Q1015 NOSIG

Decode

TAF

TAF TAF LBBG 110500Z 1106/1206 VRB04KT CAVOK BECMG 1107/1109 12014KT BECMG 1119/1121 VRB04KT

Decode

Destination Runways

ID Width Length Bearing (true/mag) Surface Threshold Overrun Markings Lighting
04 148 ft / 45 m 10,509 ft / 3,203 m 44.26° / 38.48° CONCRETE 0 ft / 0 m 0 ft / 0 m PREC-APP CENTERLINE EDGE THRESHOLD ALSF-I
22 148 ft / 45 m 10,509 ft / 3,203 m 224.28° / 218.50° CONCRETE 0 ft / 0 m 0 ft / 0 m PREC-APP CENTERLINE EDGE THRESHOLD ALSF-II TDZ

Approach Navaids

Runway Type Ident Frequency Range Bearing (true/mag) Slope Elevation
22 LOC-ILS IBG 110.30 MHz 18 nm / 33 km 224.27° / 218.49 ° - 134 ft / 41 m (AMSL)
22 OM OM - - 224.28° / 218.51 ° - 135 ft / 41 m (AMSL)
22 GS IBG 110.30 MHz 10 nm / 19 km 224.27° / 218.49 ° 3.00° 134 ft / 41 m (AMSL)
22 MM MM - - 224.28° / 218.51 ° - 135 ft / 41 m (AMSL)

Popular Alternatives